Cloud_Cover
1 0 0 0 2 1 0 46 12 18 94 45 43 0 66 2 0 0 0 0 0 0 0 0 9 24 5 5 14 5 16 5 5 8 36 30 79 87 4 78 13 98 100
1 0 8 5 5 5 64 36 3 1 5 85 4 100 100 84 65 0 0 0 0 3 3 0 0 1 5 5 5 18 24 80 97 93 84 20 30 21 88 0 73 91 100
0 0 3 1 1 5 59 54 2 5 9 0 12 79 99 20 100 0 0 0 0 0 4 0 5 5 5 10 100 96 97 95 100 100 100 92 82 18 30 57 16 39 100
0 5 0 0 0 0 0 0 3 65 42 1 0 0 3 52 100 90 0 8 42 0 1 5 5 5 5 5 5 97 72 5 58 100 100 100 100 79 4 0 4 97 100
0 0 0 0 0 0 0 0 5 9 85 11 0 28 84 99 97 78 21 9 97 1 0 3 5 5 4 4 2 76 100 100 100 100 100 100 96 44 11 0 28 100 100
0 0 0 0 0 0 0 2 2 1 19 6 0 0 39 76 100 94 0 65 9 2 1 5 4 0 1 0 0 2 25 36 91 98 93 46 14 25 41 37 98 100 100
0 0 0 0 0 0 2 5 5 5 4 5 5 0 9 97 81 0 0 3 5 6 6 68 12 0 8 0 0 0 0 0 0 0 0 0 12 17 6 9 100 100 100
0 0 0 0 0 0 4 5 6 70 25 40 5 4 42 22 0 4 46 17 6 93 100 100 100 80 8 97 0 0 0 0 0 0 3 0 0 12 9 100 100 100 100
0 0 0 0 0 5 5 5 5 19 93 78 6 5 4 9 0 5 23 95 37 42 75 100 45 88 87 87 60 5 10 0 0 0 0 11 0 4 3 100 100 100 100
0 0 0 0 0 4 5 5 22 94 67 8 5 4 0 0 5 4 19 100 86 50 6 100 98 10 85 25 52 74 56 11 0 0 5 4 100 49 87 100 100 100 100
0 0 0 0 0 5 5 5 41 86 15 40 46 5 0 0 2 5 7 95 84 5 31 100 100 2 44 100 94 100 100 48 5 8 98 100 90 100 100 100 100 100 100
1 0 0 0 1 5 5 5 5 26 40 37 5 5 5 2 4 6 79 100 58 5 5 99 69 30 91 62 100 83 91 47 5 19 100 92 85 100 100 100 100 100 100
0 0 2 4 4 6 5 5 36 6 99 48 10 6 5 4 26 32 98 100 75 5 22 69 90 88 95 85 67 90 99 90 75 5 100 99 82 100 100 100 100 100 100
0 0 12 0 0 5 14 64 99 44 32 6 10 33 10 5 100 5 28 93 84 6 2 59 10 21 40 100 60 68 99 77 70 15 100 100 100 100 100 100 54 85 72
0 0 1 4 0 4 21 97 100 89 63 5 5 36 5 13 100 69 67 92 55 100 4 3 6 33 94 28 39 100 99 55 16 7 44 100 100 100 100 98 74 94 28
0 0 0 3 0 3 5 95 100 78 67 19 53 18 18 15 86 56 100 100 94 82 5 1 11 96 93 66 100 100 97 100 100 53 5 100 100 100 89 100 100 100 100
0 0 0 0 0 0 58 18 100 98 50 5 23 25 91 6 22 99 90 92 99 30 46 1 2 86 58 98 97 69 88 5 17 98 60 87 100 100 100 100 100 100 100
0 0 0 0 0 0 6 56 56 18 100 5 31 57 33 43 94 90 100 100 47 99 77 5 0 6 26 90 100 85 5 5 7 98 100 100 100 100 100 100 100 100 100
2 0 0 0 0 0 0 26 100 14 100 98 58 44 84 22 82 99 80 100 27 77 19 5 4 2 77 100 82 61 13 5 14 100 100 100 100 100 100 100 100 100 100
1 0 0 0 0 0 0 2 8 17 99 100 100 20 95 19 80 51 78 100 88 94 14 5 0 41 100 92 77 85 44 98 60 94 100 100 100 100 100 100 100 100 100
0 0 0 0 0 0 0 9 2 5 74 100 100 81 74 100 100 99 100 100 98 89 7 34 5 28 51 100 100 96 56 47 93 55 100 100 100 100 100 100 100 100 100
9 8 0 0 0 0 0 7 3 6 9 98 100 100 95 100 100 93 100 77 94 32 7 91 100 84 100 100 99 42 36 29 100 60 100 100 100 100 100 100 100 100 100
10 5 1 0 9 0 5 20 11 84 5 80 100 95 99 100 100 100 100 88 76 5 20 10 20 92 74 97 97 63 71 65 53 97 100 100 100 100 100 100 100 100 100
61 5 5 0 0 4 5 55 100 74 36 89 100 97 98 100 100 100 98 37 70 52 9 6 20 96 59 100 100 93 57 40 100 84 62 100 100 100 100 100 100 100 100
74 5 19 49 0 38 96 29 100 100 100 100 100 87 86 100 100 100 76 98 7 9 50 97 5 25 85 100 100 8 4 2 86 91 61 90 98 100 100 100 100 100 100
41 66 19 4 28 5 67 27 20 99 100 100 100 100 93 100 100 41 81 98 7 77 38 24 5 18 76 58 100 12 4 3 11 98 34 73 86 100 100 100 100 100 100